TJS-5

Last updated on Mon Sep 14 2026 00:03:01 GMT+0000 (Coordinated Universal Time)

1 44978U 20002A 26256.45597866 -.00000353 00000+0 00000+0 0 9997 2 44978 0.2163 83.2256 0007367 348.2012 192.6780 1.00270001 24599
UTC large
Height (km)
Speed (km/s)
/
Latitude / Longitude
Inclination (degrees)
Orbital Period (minutes)
Azimuth
Elevation
Range (km)
Doppler Factor

Next 0 passes for location: London (51.5072 / 0.1276)

No passes found over London.
TJS-5